Location: Sebastopol
(38.4021°N, 122.8239°W)
Time: 15:42:52
(UTC+00:00)

Cosmos 2026 Rocket - Pass Details

Date: 29 October 2020
Orbit: 938 x 1002 km, 82.9° (Epoch: 01 December)

Event Time Altitude Azimuth Distance (km) Brightness Sun altitude
Rises 12:57:55 0° 185° (S) 3,702 7.0 -19.6°
Reaches altitude 10° 13:00:25 10° 186° (S) 2,760 6.3 -19.1°
Maximum altitude 13:06:47 88° 274° (W) 1,008 4.0 -17.8°
Drops below altitude 10° 13:13:12 10° 6° (N) 2,776 6.4 -16.6°
Sets 13:15:44 0° 7° (N) 3,725 7.1 -16.1°
